Date String (YYYY-MM-DD hh:mm:ss) UTC,Instrument flags,absolute air pressure of the measurement (hPa),sample flow rate (lpm),inlet stack bypass flow (lpm),air temperature of the measurement (°C),ambient temperature measured by the external sensor (°C),aerosol sample conditioner tube jacket temperature (°C),OPC LED temperature (°C),internal box temperature (°C),relative humidity of the measurement (%),span deviation,mass concentration of particles derived from Lorenz-Mie calculation of OPC scattering (μg/m³),mass concentration of particles derived from Lorenz-Mie calculation of OPC scattering (μg/m³),mass concentration of particles derived from Lorenz-Mie calculation of OPC scattering (μg/m³)
DateTimeUTC,F1_M11,P_M11,Q1_M11,Q2_M11,T1_M11,T2_M11,T3_M11,T4_M11,T5_M11,U1_M11,ZSPAN_M11,X0_M11,X2_M11,X1_M11
2024-06-11 23:00:00,SystemResetWarning,0828.1,5.00,000.00,028.7,027.3,000.0,037.2,030.4,028.5,0000.0,0023.56,0006.98,0005.58
2024-06-11 23:01:00,SystemResetWarning,0828.0,5.00,000.00,028.8,027.7,000.0,037.2,030.5,028.5,0000.0,0023.69,0006.96,0005.58
2024-06-11 23:02:00,SystemResetWarning,0828.1,5.00,000.00,028.9,028.0,000.0,037.2,030.7,027.5,0000.0,0022.71,0006.94,0005.59
2024-06-11 23:03:00,SystemResetWarning,0828.0,5.00,000.00,029.0,028.3,000.0,037.2,030.8,027.4,0000.0,0022.77,0006.97,0005.61
2024-06-11 23:04:00,SystemResetWarning,0828.1,5.00,000.00,029.1,028.6,000.0,037.2,031.0,027.2,0000.0,0022.41,0007.02,0005.62
2024-06-11 23:05:00,SystemResetWarning,0828.1,4.99,000.00,029.2,028.8,000.0,037.3,031.1,027.0,0000.0,0023.76,0007.07,0005.64
2024-06-11 23:06:00,SystemResetWarning,0828.1,5.00,000.00,029.3,029.0,000.0,037.3,031.2,027.0,0000.0,0023.78,0007.07,0005.65
2024-06-11 23:07:00,SystemResetWarning,0828.1,4.99,000.00,029.3,028.5,000.0,037.4,030.9,027.0,0000.0,0023.87,0007.06,0005.67
2024-06-11 23:08:00,SystemResetWarning,0828.1,5.00,000.00,029.0,026.3,000.0,037.4,029.9,027.9,0000.0,0024.06,0007.01,0005.66
2024-06-11 23:09:00,SystemResetWarning,0828.1,5.02,000.00,028.7,025.3,000.0,037.4,029.4,029.0,0000.0,0022.61,0007.05,0005.65
2024-06-11 23:10:00,SystemResetWarning,0828.1,5.01,000.00,028.5,025.8,000.0,037.3,029.5,028.3,0000.0,0022.82,0007.15,0005.65
2024-06-11 23:11:00,SystemResetWarning,0828.1,5.00,000.00,028.5,026.3,000.0,037.2,029.8,028.6,0000.0,0023.08,0007.15,0005.63
2024-06-11 23:12:00,SystemResetWarning,0828.1,4.99,000.00,028.6,026.8,000.0,037.2,030.1,029.3,0000.0,0023.44,0007.19,0005.62
2024-06-11 23:13:00,SystemResetWarning,0828.1,5.00,000.00,028.7,027.2,000.0,037.1,030.3,028.8,0000.0,0024.24,0007.18,0005.60
2024-06-11 23:14:00,SystemResetWarning,0828.1,5.00,000.00,028.7,027.6,000.0,037.1,030.5,028.2,0000.0,0023.56,0007.15,0005.59
2024-06-11 23:15:00,SystemResetWarning,0828.1,5.00,000.00,028.8,028.0,000.0,037.1,030.7,027.4,0000.0,0024.33,0007.10,0005.58
2024-06-11 23:16:00,SystemResetWarning,0828.1,5.00,000.00,028.9,028.3,000.0,037.2,030.8,026.8,0000.0,0023.77,0007.05,0005.56
2024-06-11 23:17:00,SystemResetWarning,0828.1,4.99,000.00,029.0,028.5,000.0,037.2,030.9,026.8,0000.0,0023.21,0007.09,0005.54
2024-06-11 23:18:00,SystemResetWarning,0828.1,4.99,000.00,029.1,028.7,000.0,037.2,031.0,026.5,0000.0,0022.92,0007.11,0005.53
2024-06-11 23:19:00,SystemResetWarning,0828.2,5.00,000.00,029.2,028.9,000.0,037.3,031.1,026.6,0000.0,0022.15,0007.19,0005.53
2024-06-11 23:20:00,SystemResetWarning,0828.1,5.01,000.00,029.3,029.0,000.0,037.3,031.2,026.7,0000.0,0022.35,0007.14,0005.52
2024-06-11 23:21:00,SystemResetWarning,0828.1,4.99,000.00,029.3,028.4,000.0,037.4,030.9,027.7,0000.0,0022.57,0007.06,0005.52
2024-06-11 23:22:00,SystemResetWarning,0828.1,4.99,000.00,029.0,026.3,000.0,037.4,029.9,026.8,0000.0,0023.05,0007.00,0005.51
2024-06-11 23:23:00,SystemResetWarning,0828.1,5.02,000.00,028.7,025.6,000.0,037.4,029.5,027.2,0000.0,0021.79,0006.94,0005.50
2024-06-11 23:24:00,SystemResetWarning,0828.1,5.00,000.00,028.6,026.1,000.0,037.3,029.7,027.6,0000.0,0021.09,0006.96,0005.49
2024-06-11 23:25:00,SystemResetWarning,0828.1,5.00,000.00,028.6,026.5,000.0,037.2,030.0,027.9,0000.0,0021.38,0007.00,0005.49
2024-06-11 23:26:00,SystemResetWarning,0828.1,5.00,000.00,028.7,027.0,000.0,037.2,030.2,028.2,0000.0,0020.85,0006.99,0005.48
2024-06-11 23:27:00,SystemResetWarning,0828.1,5.00,000.00,028.8,027.4,000.0,037.2,030.4,027.9,0000.0,0019.34,0006.98,0005.49
2024-06-11 23:28:00,SystemResetWarning,0828.1,4.99,000.00,028.9,027.8,000.0,037.1,030.6,027.3,0000.0,0020.03,0006.99,0005.49
2024-06-11 23:29:00,SystemResetWarning,0828.1,4.99,000.00,028.9,028.1,000.0,037.2,030.8,027.0,0000.0,0020.17,0007.01,0005.49
2024-06-11 23:30:00,SystemResetWarning,0828.0,5.00,000.00,029.0,028.4,000.0,037.2,030.9,026.9,0000.0,0020.71,0006.97,0005.49
2024-06-11 23:31:00,SystemResetWarning,0828.0,5.01,000.00,029.1,028.6,000.0,037.2,031.0,027.2,0000.0,0022.16,0006.95,0005.50
2024-06-11 23:32:00,SystemResetWarning,0828.1,5.00,000.00,029.2,028.8,000.0,037.3,031.1,026.5,0000.0,0022.40,0006.96,0005.51
2024-06-11 23:33:00,SystemResetWarning,0828.1,5.00,000.00,029.3,029.0,000.0,037.3,031.2,026.6,0000.0,0022.21,0006.97,0005.52
2024-06-11 23:34:00,SystemResetWarning,0828.1,4.98,000.00,029.3,027.9,000.0,037.4,030.6,026.9,0000.0,0022.96,0006.96,0005.52
2024-06-11 23:35:00,SystemResetWarning,0828.0,5.01,000.00,028.9,025.8,000.0,037.4,029.6,026.9,0000.0,0022.74,0006.91,0005.53
2024-06-11 23:36:00,SystemResetWarning,0827.8,5.02,000.00,028.6,025.5,000.0,037.4,029.4,027.3,0000.0,0022.11,0006.82,0005.53
2024-06-11 23:37:00,SystemResetWarning,0827.9,4.99,000.00,028.6,026.1,000.0,037.3,029.7,027.4,0000.0,0021.62,0006.83,0005.54
2024-06-11 23:38:00,SystemResetWarning,0828.0,5.00,000.00,028.6,026.5,000.0,037.2,029.9,027.4,0000.0,0022.56,0006.86,0005.56
2024-06-11 23:39:00,SystemResetWarning,0828.0,5.00,000.00,028.7,027.0,000.0,037.2,030.2,027.3,0000.0,0023.31,0006.84,0005.57
2024-06-11 23:40:00,SystemResetWarning,0828.0,5.00,000.00,028.7,027.4,000.0,037.1,030.4,027.3,0000.0,0022.33,0006.84,0005.58
2024-06-11 23:41:00,SystemResetWarning,0828.0,5.00,000.00,028.8,027.8,000.0,037.2,030.6,027.2,0000.0,0023.98,0006.87,0005.59
2024-06-11 23:42:00,SystemResetWarning,0828.0,5.01,000.00,028.9,028.1,000.0,037.2,030.8,027.6,0000.0,0023.63,0006.93,0005.58
2024-06-11 23:43:00,SystemResetWarning,0828.1,4.99,000.00,029.0,028.4,000.0,037.2,030.9,027.6,0000.0,0024.03,0006.95,0005.57
2024-06-11 23:44:00,SystemResetWarning,0828.0,4.99,000.00,029.1,028.6,000.0,037.2,031.0,027.2,0000.0,0023.95,0006.89,0005.56
2024-06-11 23:45:00,SystemResetWarning,0828.0,4.99,000.00,029.2,028.8,000.0,037.3,031.1,026.6,0000.0,0023.50,0006.91,0005.56
2024-06-11 23:46:00,SystemResetWarning,0828.0,5.00,000.00,029.3,029.0,000.0,037.3,031.2,026.6,0000.0,0023.22,0006.93,0005.54
2024-06-11 23:47:00,SystemResetWarning,0828.0,4.99,000.00,029.2,027.5,000.0,037.4,030.5,026.8,0000.0,0023.46,0006.98,0005.53
2024-06-11 23:48:00,SystemResetWarning,0827.8,5.02,000.00,028.8,025.6,000.0,037.4,029.5,027.5,0000.0,0024.17,0007.00,0005.54
2024-06-11 23:49:00,SystemResetWarning,0827.9,5.01,000.00,028.6,025.7,000.0,037.4,029.5,028.2,0000.0,0024.85,0007.00,0005.53
2024-06-11 23:50:00,SystemResetWarning,0827.8,4.99,000.00,028.6,026.2,000.0,037.3,029.7,028.2,0000.0,0024.17,0006.99,0005.51
2024-06-11 23:51:00,SystemResetWarning,0828.0,4.99,000.00,028.6,026.6,000.0,037.2,030.0,027.6,0000.0,0024.27,0006.96,0005.51
2024-06-11 23:52:00,SystemResetWarning,0827.9,5.01,000.00,028.7,027.1,000.0,037.2,030.2,027.3,0000.0,0022.95,0006.86,0005.48
2024-06-11 23:53:00,SystemResetWarning,0827.8,5.01,000.00,028.7,027.5,000.0,037.1,030.4,027.1,0000.0,0021.64,0006.84,0005.48
2024-06-11 23:54:00,SystemResetWarning,0828.0,5.00,000.00,028.8,027.9,000.0,037.1,030.6,027.5,0000.0,0021.64,0006.87,0005.48
2024-06-11 23:55:00,SystemResetWarning,0827.9,4.99,000.00,028.9,028.2,000.0,037.2,030.8,028.2,0000.0,0020.80,0006.95,0005.48
2024-06-11 23:56:00,SystemResetWarning,0827.8,5.00,000.00,029.0,028.4,000.0,037.2,030.9,027.0,0000.0,0020.34,0006.97,0005.48
2024-06-11 23:57:00,SystemResetWarning,0827.9,5.00,000.00,029.1,028.7,000.0,037.2,031.0,027.3,0000.0,0020.56,0006.98,0005.49
2024-06-11 23:58:00,SystemResetWarning,0827.9,5.01,000.00,029.2,028.9,000.0,037.2,031.1,026.9,0000.0,0021.19,0006.97,0005.49
2024-06-11 23:59:00,SystemResetWarning,0827.9,4.99,000.00,029.3,028.8,000.0,037.3,031.1,026.5,0000.0,0021.42,0006.96,0005.46
